• Join FlightAware (Why Join?)
  • Login
  • US Flag 
05:30AM EDT


 

Airport Tracker/Info


-or-


 

Live Flight TrackerFlight Track Log ✈ EJA982 ✈ 23-May-2013 ✈ CYEG - CYYC

Flight Track Log - Related Links

Times and Time Zones

All times are in EDT time to prevent confusion due to time zone crossing. See the EJA982 flight status page for this flight to view local times or setup timezone preferences in your user account.

Time Position Orientation Groundspeed Altitude Reporting Facility
EDT Latitude Longitude Course Direction KTS MPH feet Rate Location/Type
01:03PM 53.2500 -113.5667 138° Southeast 170 196 3,800  Level Edmonton Center
01:04PM 53.2167 -113.5167 138° Southeast 220 253 8,200 4,200 Climbing Edmonton Center
01:05PM 53.1500 -113.4667 156° South 260 299 12,200 3,300 Climbing Edmonton Center
01:06PM 53.0500 -113.4667 180° South 340 391 14,800 2,160 Climbing Edmonton Center
01:07PM 52.9500 -113.5167 197° South 370 426 16,600 1,080 Climbing Edmonton Center
01:08PM 52.8500 -113.5167 180° South 400 460 17,000 180 Climbing Edmonton Center
01:09PM 52.7167 -113.5167 180° South 400 460 17,000  Level Edmonton Center
01:10PM 52.6000 -113.5167 180° South 410 472 17,100  Climbing Edmonton Center
01:11PM 52.5000 -113.5500 191° South 410 472 17,000  Descending Edmonton Center
01:12PM 52.3833 -113.5667 185° South 410 472 17,100  Climbing Edmonton Center
01:13PM 52.2667 -113.5667 180° South 400 460 17,000  Descending Edmonton Center
01:14PM 52.1667 -113.5667 180° South 400 460 17,100  Climbing Edmonton Center
01:15PM 52.0333 -113.5833 184° South 400 460 17,000 -60 Descending Edmonton Center
01:16PM 51.9167 -113.6000 185° South 410 472 17,000 -540 Level Edmonton Center
01:17PM 51.8167 -113.6167 186° South 400 460 16,000 -1,620 Descending Edmonton Center
01:18PM 51.7167 -113.6500 192° South 390 449 13,800 -2,160 Descending Edmonton Center
01:19PM 51.6000 -113.7000 195° South 400 460 11,700 -1,920 Descending Edmonton Center
01:20PM 51.5167 -113.8167 221° Southwest 390 449 10,000 -960 Descending Edmonton Center
01:21PM 51.4333 -113.8833 207° Southwest 280 322 9,800 -780 Descending Edmonton Center
01:22PM 51.4167 -114.0000 257° West 280 322 8,500 -1,440 Descending Edmonton Center
01:23PM 51.3500 -114.0333 197° South 200 230 7,000 -1,260 Descending Edmonton Center
01:24PM 51.3000 -114.0500 192° South 150 173 6,000 -540 Descending Edmonton Center
01:25PM 51.2667 -114.0500 180° South 160 184 6,000  Level Edmonton Center
01:26PM 51.2167 -114.0333 168° South 160 184 6,000 -480 Level Edmonton Center
01:27PM 51.1667 -114.0500 192° South 160 184 5,100 -900 Descending Edmonton Center
01:28PM 51.1333 -114.0500 180° South 160 184 4,300 -840 Descending Edmonton Center